Other Surface Observations
Issued by NWS Upton, NY

Home | Current Version | Previous Version | Text Only | Print | Product List | Glossary On
Versions: 1 2 3 4 5 6 7 8 9 10 11 12 13 14 15 16 17 18 19 20 21 22 23 24 25 26 27 28 29 30 31 32 33 34 35 36 37 38 39 40 41 42 43 44 45 46 47 48 49 50
000
SXUS51 KOKX 211557
OSOOKX
New York City Metropolitan Area Weather Roundup
National Weather Service New York NY
1200 PM EDT SAT APR 21 2018

CITY           SKY/WX    TMP DP  RH WIND       PRES   REMARKS
Central Park   FAIR      54  21  27 W9G16     30.40F
LaGuardia Arpt FAIR      54  24  31 NW12G18   30.37F
Kennedy Intl   FAIR      55  24  30 NW16G23   30.39F
Newark Liberty PTSUNNY   56  26  31 NW8G21    30.38F
Teterboro Arpt FAIR      54  25  32 NW16G28   30.37F
Bronx Bot Gard   N/A     54  27  35 N5        30.38F
Bronx Lehman C   N/A     54  25  32 NW8         N/A
Queens College   N/A     52  25  35 NW9         N/A
Breezy Point     N/A     50 N/A N/A W5G10       N/A
Brooklyn Coll    N/A     52  25  35 W10         N/A
Staten Island    N/A     52  25  35 W13         N/A

>>>>>>>>>>>>>>>>>>>>>>>>>>>>>>>>> KEY <<<<<<<<<<<<<<<<<<<<<<<<<<<<<<<
> SKY/WX - Sky Condition/Present    : R : WCI - Wind Chill Index    <
>          Weather                  : E : VSB - Visibility in Miles <
> TMP    - Temperature in Deg F     : M : HX  - Heat Index          <
> DP     - Dew Point Temperature    : A : TC  - Temperature in      <
> RH     - Relative Humidity        : R :       Celsius             <
> WIND   - Direction/Speed (mph)    : K : VRB - Variable Wind Dir   <
> PRES   - Pressure (in Hg)         : S :                           <
>>>>>>>>>>>>>>>>>>>>>>>>>>>>>>>>> KEY <<<<<<<<<<<<<<<<<<<<<<<<<<<<<<<




USA.gov is the U.S. government's official web portal to all federal, state and local government web resources and services.